Regional Weather Roundup
Issued by NWS

Home | Current Version | Previous Version | Text Only | Print | Product List | Glossary On
Versions: 1 2 3 4 5 6 7 8 9 10 11 12 13 14 15 16 17 18 19 20 21 22 23 24 25 26 27 28 29 30 31 32 33 34 35 36 37 38 39 40 41 42 43 44 45 46 47 48 49 50
000
ASUS43 KLSX 172007
RWRMO

WEATHER SUMMARY FOR MISSOURI
NATIONAL WEATHER SERVICE SPRINGFIELD MO
300 PM CDT TUE OCT 17 2017

NOTE: "FAIR" INDICATES FEW OR NO CLOUDS BELOW 12,000 FEET WITH NO
       SIGNIFICANT WEATHER AND/OR OBSTRUCTIONS TO VISIBILITY.
       CURRENT SKY AND/OR WEATHER CONDITIONS ARE NOT AVAILABLE FOR
       CHILLICOTHE AND FARMINGTON.

MOZ001>031-035>038-043-044-053-054-172100-
...NORTHERN AND WESTERN MISSOURI...

CITY           SKY/WX    TMP DP  RH WIND       PRES   REMARKS
KANSAS CTY INT MOSUNNY   71  46  40 S17       30.11F
KANSAS C DTWN  SUNNY     73  46  38 S16       30.11F
LEE`S SUMMIT   SUNNY     71  46  40 S20G26    30.13F
ST JOSEPH      SUNNY     73  45  36 S14G22    30.08F
CHILLICOTHE      N/A     71  45  39 S10G22    30.12F
KIRKSVILLE     SUNNY     71  45  39 SW13G18   30.14F

$$
MOZ066>068-077>081-088>096-101>105-172100-
...SOUTHWEST MISSOURI...

CITY           SKY/WX    TMP DP  RH WIND       PRES   REMARKS
SPRINGFIELD    SUNNY     71  41  33 SW10      30.19F
JOPLIN         SUNNY     70  45  40 S7        30.19F
BRANSON        MOSUNNY   68  37  32 SE7       30.23F

$$
MOZ032>034-039>042-045>050-055>058-069>072-172100-
...CENTRAL MISSOURI...

CITY           SKY/WX    TMP DP  RH WIND       PRES   REMARKS
COLUMBIA       SUNNY     70  45  40 SW9       30.18F
JEFFERSON CITY SUNNY     70  42  36 S8        30.18F
ROLLA          SUNNY     68  42  38 S7        30.22F
SEDALIA        SUNNY     71  48  43 S13       30.18F
WHITEMAN AFB   SUNNY     70  45  40 S16       30.11F
WARRENSBURG    SUNNY     70  41  35 S10G21    30.15F
OSAGE BEACH    SUNNY     70  44  39 S9        30.20F

$$
MOZ051-052-059>065-172100-
...EAST CENTRAL MISSOURI...

CITY           SKY/WX    TMP DP  RH WIND       PRES   REMARKS
ST LOUIS INTL  PTSUNNY   70  39  32 S8        30.23F
SPIRIT OF STL  MOSUNNY   71  41  33 SW12G17   30.21F
ST CHARLES     SUNNY     69  38  32 S10       30.21F

$$
MOZ072>076-082>087-097>100-106>115-172100-
...SOUTH CENTRAL AND SOUTHEAST MISSOURI...

CITY           SKY/WX    TMP DP  RH WIND       PRES   REMARKS
CAPE GIRARDEAU MOSUNNY   68  40  35 E3        30.26F
FARMINGTON     SUNNY     67  40  37 S6        30.25F
POPLAR BLUFF   SUNNY     68  40  35 VRB5      30.25F
WEST PLAINS    SUNNY     68  37  32 S8        30.25F

$$



USA.gov is the U.S. government's official web portal to all federal, state and local government web resources and services.